Location: ?ejeti?ky
(50.4060°N, 14.9016°E)
Time: 17:10:37
(UTC+00:00)

Tiangong - Pass Details

Date: 02 October 2021
Orbit: 382 x 385 km, 41.5° (Epoch: 17 October)

Event Time Altitude Azimuth Distance (km) Brightness Sun altitude
Exits shadow 02:52:50 14° 150° (SSE) 1,209 3.7 -21.1°
Drops below altitude 10° 02:53:46 10° 134° (SE) 1,398 4.2 -20.9°
Sets 02:56:25 0° 110° (ESE) 2,251 5.7 -20.5°
